Time,TemperatureF,DewpointF,PressureIn,WindDirection,WindDirectionDegrees,WindSpeedMPH,WindSpeedGustMPH,Humidity,HourlyPrecipIn,Conditions,Clouds,dailyrainin,SolarRadiationWatts/m^2,SoftwareType,DateUTC
2013-01-09 00:02:00,42.0,40.0,-100.00,West,271,4.0,7.0,93,0.00,,,0.11,0.000000,,2013-01-09 08:02:00,
2013-01-09 00:12:00,42.0,40.0,-100.00,West,271,4.0,7.0,93,0.00,,,0.11,0.000000,,2013-01-09 08:12:00,
2013-01-09 00:32:00,42.0,40.0,-100.00,WNW,287,5.0,9.0,92,0.00,,,0.11,0.000000,,2013-01-09 08:32:00,
2013-01-09 00:43:00,42.0,40.0,-100.00,WNW,287,5.0,9.0,92,0.00,,,0.11,0.000000,,2013-01-09 08:43:00,
2013-01-09 00:53:00,42.0,40.0,-100.00,WNW,287,5.0,9.0,92,0.00,,,0.11,0.000000,,2013-01-09 08:53:00,
2013-01-09 01:02:00,42.0,40.0,-100.00,WNW,287,5.0,9.0,92,0.00,,,0.11,0.000000,,2013-01-09 09:02:00,
2013-01-09 01:11:00,42.0,40.0,-100.00,WNW,287,5.0,9.0,92,0.00,,,0.11,0.000000,,2013-01-09 09:11:00,
2013-01-09 01:32:00,41.0,40.0,-100.00,NW,324,3.0,9.0,98,0.00,,,0.11,0.000000,,2013-01-09 09:32:00,
2013-01-09 01:42:00,41.0,40.0,-100.00,NW,324,3.0,9.0,98,0.00,,,0.11,0.000000,,2013-01-09 09:42:00,
2013-01-09 01:53:00,41.0,40.0,-100.00,NW,324,3.0,9.0,98,0.00,,,0.11,0.000000,,2013-01-09 09:53:00,
2013-01-09 02:02:00,41.0,40.0,-100.00,NW,324,3.0,9.0,98,0.00,,,0.11,0.000000,,2013-01-09 10:02:00,
2013-01-09 02:11:00,41.0,40.0,-100.00,NW,324,3.0,9.0,98,0.00,,,0.11,0.000000,,2013-01-09 10:11:00,
2013-01-09 02:32:00,41.0,40.0,-100.00,NNW,327,4.0,10.0,97,0.00,,,0.11,0.000000,,2013-01-09 10:32:00,
2013-01-09 02:42:00,41.0,40.0,-100.00,NNW,327,4.0,10.0,97,0.00,,,0.11,0.000000,,2013-01-09 10:42:00,
2013-01-09 02:52:00,41.0,40.0,-100.00,NNW,327,4.0,10.0,97,0.00,,,0.11,0.000000,,2013-01-09 10:52:00,
2013-01-09 03:02:00,41.0,40.0,-100.00,NNW,327,4.0,10.0,97,0.00,,,0.11,0.000000,,2013-01-09 11:02:00,
2013-01-09 03:11:00,41.0,40.0,-100.00,NNW,327,4.0,10.0,97,0.00,,,0.11,0.000000,,2013-01-09 11:11:00,
2013-01-09 03:33:00,41.0,39.0,-100.00,WNW,296,4.0,7.0,92,0.00,,,0.11,0.000000,,2013-01-09 11:33:00,
2013-01-09 03:42:00,41.0,39.0,-100.00,WNW,296,4.0,7.0,92,0.00,,,0.11,0.000000,,2013-01-09 11:42:00,
2013-01-09 03:53:00,41.0,39.0,-100.00,WNW,296,4.0,7.0,92,0.00,,,0.11,0.000000,,2013-01-09 11:53:00,
2013-01-09 04:03:00,41.0,39.0,-100.00,WNW,296,4.0,7.0,92,0.00,,,0.11,0.000000,,2013-01-09 12:03:00,
2013-01-09 04:12:00,41.0,39.0,-100.00,WNW,296,4.0,7.0,92,0.00,,,0.11,0.000000,,2013-01-09 12:12:00,
2013-01-09 04:33:00,41.0,38.0,-100.00,NNW,343,2.0,6.0,90,0.00,,,0.11,0.000000,,2013-01-09 12:33:00,
2013-01-09 04:43:00,41.0,38.0,-100.00,NNW,343,2.0,6.0,90,0.00,,,0.11,0.000000,,2013-01-09 12:43:00,
2013-01-09 04:53:00,41.0,38.0,-100.00,NNW,343,2.0,6.0,90,0.00,,,0.11,0.000000,,2013-01-09 12:53:00,
2013-01-09 05:02:00,41.0,38.0,-100.00,NNW,343,2.0,6.0,90,0.00,,,0.11,0.000000,,2013-01-09 13:02:00,
2013-01-09 05:12:00,41.0,38.0,-100.00,NNW,343,2.0,6.0,90,0.00,,,0.11,0.000000,,2013-01-09 13:12:00,
2013-01-09 05:33:00,40.0,35.0,-100.00,East,101,2.0,6.0,81,0.00,,,0.11,0.000000,,2013-01-09 13:33:00,
2013-01-09 05:43:00,40.0,35.0,-100.00,East,101,2.0,6.0,81,0.00,,,0.11,0.000000,,2013-01-09 13:43:00,
2013-01-09 05:53:00,40.0,35.0,-100.00,East,101,2.0,6.0,81,0.00,,,0.11,0.000000,,2013-01-09 13:53:00,
2013-01-09 06:02:00,40.0,35.0,-100.00,East,101,2.0,6.0,81,0.00,,,0.11,0.000000,,2013-01-09 14:02:00,
2013-01-09 06:12:00,40.0,35.0,-100.00,East,101,2.0,6.0,81,0.00,,,0.11,0.000000,,2013-01-09 14:12:00,
2013-01-09 06:33:00,38.0,38.0,-100.00,NW,313,4.0,8.0,100,0.00,,,0.09,0.000000,,2013-01-09 14:33:00,
2013-01-09 06:43:00,38.0,38.0,-100.00,NW,313,4.0,8.0,100,0.00,,,0.09,0.000000,,2013-01-09 14:43:00,
2013-01-09 06:53:00,38.0,38.0,-100.00,NW,313,4.0,8.0,100,0.00,,,0.09,0.000000,,2013-01-09 14:53:00,
2013-01-09 07:03:00,38.0,38.0,-100.00,NW,313,4.0,8.0,100,0.00,,,0.09,0.000000,,2013-01-09 15:03:00,
2013-01-09 07:12:00,38.0,38.0,-100.00,NW,313,4.0,8.0,100,0.00,,,0.09,0.000000,,2013-01-09 15:12:00,
2013-01-09 07:33:00,38.0,38.0,-100.00,NNW,329,5.0,12.0,100,0.00,,,0.08,0.000000,,2013-01-09 15:33:00,
2013-01-09 07:43:00,38.0,38.0,-100.00,NNW,329,5.0,12.0,100,0.00,,,0.08,0.000000,,2013-01-09 15:43:00,
2013-01-09 07:53:00,38.0,38.0,-100.00,NNW,329,5.0,12.0,100,0.00,,,0.08,0.000000,,2013-01-09 15:53:00,
2013-01-09 08:03:00,38.0,38.0,-100.00,NNW,329,5.0,12.0,100,0.00,,,0.08,0.000000,,2013-01-09 16:03:00,
2013-01-09 08:12:00,38.0,38.0,-100.00,NNW,329,5.0,12.0,100,0.00,,,0.08,0.000000,,2013-01-09 16:12:00,
2013-01-09 08:34:00,39.0,38.0,-100.00,WNW,292,6.0,15.0,97,0.00,,,0.04,2.000000,,2013-01-09 16:34:00,
2013-01-09 08:43:00,39.0,38.0,-100.00,WNW,292,6.0,15.0,97,0.00,,,0.04,2.000000,,2013-01-09 16:43:00,
2013-01-09 08:53:00,39.0,38.0,-100.00,WNW,292,6.0,15.0,97,0.00,,,0.04,2.000000,,2013-01-09 16:53:00,
2013-01-09 09:02:00,39.0,38.0,-100.00,WNW,292,6.0,15.0,97,0.00,,,0.04,2.000000,,2013-01-09 17:02:00,
2013-01-09 09:12:00,39.0,38.0,-100.00,WNW,292,6.0,15.0,97,0.00,,,0.04,2.000000,,2013-01-09 17:12:00,
2013-01-09 09:43:00,38.0,38.0,-100.00,NW,321,5.0,25.0,100,0.00,,,0.02,21.000000,,2013-01-09 17:43:00,
2013-01-09 09:53:00,38.0,38.0,-100.00,NW,321,5.0,25.0,100,0.00,,,0.02,21.000000,,2013-01-09 17:53:00,
2013-01-09 10:03:00,38.0,38.0,-100.00,NW,321,5.0,25.0,100,0.00,,,0.02,21.000000,,2013-01-09 18:03:00,
2013-01-09 10:12:00,38.0,38.0,-100.00,NW,321,5.0,25.0,100,0.00,,,0.02,21.000000,,2013-01-09 18:12:00,
2013-01-09 10:33:00,39.0,34.0,-100.00,West,272,15.0,32.0,81,0.00,,,0.01,211.000000,,2013-01-09 18:33:00,
2013-01-09 10:43:00,39.0,34.0,-100.00,West,272,15.0,32.0,81,0.00,,,0.01,211.000000,,2013-01-09 18:43:00,
2013-01-09 10:53:00,39.0,34.0,-100.00,West,272,15.0,32.0,81,0.00,,,0.01,211.000000,,2013-01-09 18:53:00,
2013-01-09 11:02:00,39.0,34.0,-100.00,West,272,15.0,32.0,81,0.00,,,0.01,211.000000,,2013-01-09 19:02:00,
2013-01-09 11:12:00,39.0,34.0,-100.00,West,272,15.0,32.0,81,0.00,,,0.01,211.000000,,2013-01-09 19:12:00,
2013-01-09 12:43:00,38.0,33.0,-100.00,West,276,14.0,29.0,82,-99.99,,,0.00,380.000000,,2013-01-09 20:43:00,
2013-01-09 12:53:00,38.0,33.0,-100.00,West,276,14.0,29.0,82,-99.99,,,0.00,380.000000,,2013-01-09 20:53:00,
2013-01-09 13:02:00,38.0,33.0,-100.00,West,276,14.0,29.0,82,-99.99,,,0.00,380.000000,,2013-01-09 21:02:00,
2013-01-09 13:12:00,38.0,33.0,-100.00,West,276,14.0,29.0,82,-99.99,,,0.00,380.000000,,2013-01-09 21:12:00,
2013-01-09 13:33:00,39.0,34.0,-100.00,NW,305,9.0,25.0,82,0.00,,,0.00,431.000000,,2013-01-09 21:33:00,
2013-01-09 13:43:00,39.0,34.0,-100.00,NW,305,9.0,25.0,82,0.00,,,0.00,431.000000,,2013-01-09 21:43:00,
2013-01-09 13:53:00,39.0,34.0,-100.00,NW,305,9.0,25.0,82,0.00,,,0.00,431.000000,,2013-01-09 21:53:00,
2013-01-09 14:03:00,39.0,34.0,-100.00,NW,305,9.0,25.0,82,0.00,,,0.00,431.000000,,2013-01-09 22:03:00,
2013-01-09 14:12:00,39.0,34.0,-100.00,NW,305,9.0,25.0,82,0.00,,,0.00,431.000000,,2013-01-09 22:12:00,
2013-01-09 14:43:00,35.0,33.0,-100.00,West,281,10.0,24.0,91,0.00,,,0.00,205.000000,,2013-01-09 22:43:00,
2013-01-09 14:52:00,35.0,33.0,-100.00,West,281,10.0,24.0,91,0.00,,,0.00,205.000000,,2013-01-09 22:52:00,
2013-01-09 15:02:00,35.0,33.0,-100.00,West,281,10.0,24.0,91,0.00,,,0.00,205.000000,,2013-01-09 23:02:00,
2013-01-09 15:12:00,35.0,33.0,-100.00,West,281,10.0,24.0,91,0.00,,,0.00,205.000000,,2013-01-09 23:12:00,
2013-01-09 15:33:00,33.0,33.0,-100.00,West,281,10.0,20.0,100,0.00,,,0.00,141.000000,,2013-01-09 23:33:00,
2013-01-09 15:43:00,33.0,33.0,-100.00,West,281,10.0,20.0,100,0.00,,,0.00,141.000000,,2013-01-09 23:43:00,
2013-01-09 15:53:00,33.0,33.0,-100.00,West,281,10.0,20.0,100,0.00,,,0.00,141.000000,,2013-01-09 23:53:00,
2013-01-09 16:02:00,33.0,33.0,-100.00,West,281,10.0,20.0,100,0.00,,,0.00,141.000000,,2013-01-10 00:02:00,
2013-01-09 16:12:00,33.0,33.0,-100.00,West,281,10.0,20.0,100,0.00,,,0.00,141.000000,,2013-01-10 00:12:00,
2013-01-09 16:33:00,33.0,31.0,-100.00,WNW,282,12.0,20.0,94,0.00,,,0.00,81.000000,,2013-01-10 00:33:00,
2013-01-09 16:43:00,33.0,31.0,-100.00,WNW,282,12.0,20.0,94,0.00,,,0.00,81.000000,,2013-01-10 00:43:00,
2013-01-09 16:53:00,33.0,31.0,-100.00,WNW,282,12.0,20.0,94,0.00,,,0.00,81.000000,,2013-01-10 00:53:00,
2013-01-09 17:02:00,33.0,31.0,-100.00,WNW,282,12.0,20.0,94,0.00,,,0.00,81.000000,,2013-01-10 01:02:00,
2013-01-09 17:12:00,33.0,31.0,-100.00,WNW,282,12.0,20.0,94,0.00,,,0.00,81.000000,,2013-01-10 01:12:00,
2013-01-09 17:33:00,31.0,31.0,-100.00,NW,311,6.0,21.0,100,0.00,,,0.00,8.000000,,2013-01-10 01:33:00,
2013-01-09 17:43:00,31.0,31.0,-100.00,NW,311,6.0,21.0,100,0.00,,,0.00,8.000000,,2013-01-10 01:43:00,
2013-01-09 17:53:00,31.0,31.0,-100.00,NW,311,6.0,21.0,100,0.00,,,0.00,8.000000,,2013-01-10 01:53:00,
2013-01-09 18:02:00,31.0,31.0,-100.00,NW,311,6.0,21.0,100,0.00,,,0.00,8.000000,,2013-01-10 02:02:00,
2013-01-09 18:12:00,31.0,31.0,-100.00,NW,311,6.0,21.0,100,0.00,,,0.00,8.000000,,2013-01-10 02:12:00,
2013-01-09 19:02:00,30.0,30.0,-100.00,WNW,295,9.0,17.0,100,0.00,,,0.00,0.000000,,2013-01-10 03:02:00,
2013-01-09 19:11:00,30.0,30.0,-100.00,WNW,295,9.0,17.0,100,0.00,,,0.00,0.000000,,2013-01-10 03:11:00,
2013-01-09 19:33:00,30.0,30.0,-100.00,NW,320,6.0,14.0,100,0.00,,,0.00,0.000000,,2013-01-10 03:33:00,
2013-01-09 19:43:00,30.0,30.0,-100.00,NW,320,6.0,14.0,100,0.00,,,0.00,0.000000,,2013-01-10 03:43:00,
2013-01-09 19:52:00,30.0,30.0,-100.00,NW,320,6.0,14.0,100,0.00,,,0.00,0.000000,,2013-01-10 03:52:00,
2013-01-09 20:02:00,30.0,30.0,-100.00,NW,320,6.0,14.0,100,0.00,,,0.00,0.000000,,2013-01-10 04:02:00,
2013-01-09 20:11:00,30.0,30.0,-100.00,NW,320,6.0,14.0,100,0.00,,,0.00,0.000000,,2013-01-10 04:11:00,
2013-01-09 20:32:00,29.0,29.0,-100.00,NW,304,7.0,18.0,100,0.01,,,0.01,0.000000,,2013-01-10 04:32:00,
2013-01-09 20:43:00,29.0,29.0,-100.00,NW,304,7.0,18.0,100,0.01,,,0.01,0.000000,,2013-01-10 04:43:00,
2013-01-09 20:52:00,29.0,29.0,-100.00,NW,304,7.0,18.0,100,0.01,,,0.01,0.000000,,2013-01-10 04:52:00,
2013-01-09 21:03:00,29.0,29.0,-100.00,NW,304,7.0,18.0,100,0.01,,,0.01,0.000000,,2013-01-10 05:03:00,
2013-01-09 21:12:00,29.0,29.0,-100.00,NW,304,7.0,18.0,100,0.01,,,0.01,0.000000,,2013-01-10 05:12:00,
2013-01-09 21:33:00,28.0,28.0,-100.00,NW,319,5.0,20.0,100,0.02,,,0.03,0.000000,,2013-01-10 05:33:00,
2013-01-09 21:43:00,28.0,28.0,-100.00,NW,319,5.0,20.0,100,0.02,,,0.03,0.000000,,2013-01-10 05:43:00,
2013-01-09 21:52:00,28.0,28.0,-100.00,NW,319,5.0,20.0,100,0.02,,,0.03,0.000000,,2013-01-10 05:52:00,
2013-01-09 22:02:00,28.0,28.0,-100.00,NW,319,5.0,20.0,100,0.02,,,0.03,0.000000,,2013-01-10 06:02:00,
2013-01-09 22:11:00,28.0,28.0,-100.00,NW,319,5.0,20.0,100,0.02,,,0.03,0.000000,,2013-01-10 06:11:00,
2013-01-09 22:32:00,28.0,28.0,-100.00,WNW,298,6.0,12.0,100,0.00,,,0.03,0.000000,,2013-01-10 06:32:00,
2013-01-09 22:42:00,28.0,28.0,-100.00,WNW,298,6.0,12.0,100,0.00,,,0.03,0.000000,,2013-01-10 06:42:00,
2013-01-09 22:52:00,28.0,28.0,-100.00,WNW,298,6.0,12.0,100,0.00,,,0.03,0.000000,,2013-01-10 06:52:00,
2013-01-09 23:02:00,28.0,28.0,-100.00,WNW,298,6.0,12.0,100,0.00,,,0.03,0.000000,,2013-01-10 07:02:00,
2013-01-09 23:11:00,28.0,28.0,-100.00,WNW,298,6.0,12.0,100,0.00,,,0.03,0.000000,,2013-01-10 07:11:00,
2013-01-09 23:42:00,27.0,27.0,-100.00,NW,309,5.0,11.0,100,0.00,,,0.03,0.000000,,2013-01-10 07:42:00,
2013-01-09 23:52:00,27.0,27.0,-100.00,NW,309,5.0,11.0,100,0.00,,,0.03,0.000000,,2013-01-10 07:52:00,